EW2561 Weather Reports


Display with metric or nautical units.
time (UTC)temp
F
wind
direction
speed
MPH
gust
MPH
rain 1hr
in
rain 24hr
in
rain mn
in
humidity
%
barometer
mb
20260901063705 62 115 1.0 5.0 0.00 0.19 0.00 91 1016.5
20260901063658 62 283 2.0 7.0 0.00 0.19 0.00 90 1016.6
20260901062644 62 274 1.0 5.0 0.00 0.19 0.00 91 1016.6
20260901062143 62 262 1.0 5.0 0.00 0.19 0.00 91 1016.5
20260901061643 62 279 1.0 5.0 0.00 0.19 0.00 91 1016.5
20260901061141 62 248 1.0 5.0 0.00 0.19 0.00 91 1016.5
20260901060642 62 280 1.0 5.0 0.00 0.19 0.00 91 1016.5
20260901060141 62 250 1.0 5.0 0.00 0.19 0.00 91 1016.4
20260901055639 62 252 1.0 5.0 0.00 0.19 0.00 91 1016.3
20260901055408 62 1 1.0 4.0 0.00 0.19 0.00 91 1016.3
20260901054636 62 179 1.0 4.0 0.00 0.19 0.00 91 1016.3
20260901054135 62 322 1.0 4.0 0.00 0.19 0.00 91 1016.3
20260901053907 62 270 1.0 5.0 0.00 0.19 0.00 91 1016.3
20260901053135 62 235 1.0 5.0 0.00 0.19 0.00 91 1016.3
20260901052641 61 283 1.0 3.0 0.00 0.19 0.00 91 1016.3
20260901052136 61 288 1.0 7.0 0.00 0.19 0.00 91 1016.2
20260901051636 62 243 1.0 7.0 0.00 0.19 0.00 91 1016.3
20260901051402 61 333 1.0 4.0 0.00 0.19 0.00 91 1016.3
20260901050635 61 307 1.0 4.0 0.00 0.19 0.00 91 1016.2
20260901050137 61 316 1.0 4.0 0.00 0.19 0.00 92 1016.2
20260901045655 61 185 2.0 10.0 0.00 0.19 0.00 92 1016.2
20260901045649 61 342 2.0 10.0 0.00 0.19 0.00 92 1016.2
20260901044635 61 233 1.0 5.0 0.00 0.19 0.00 92 1016.1
20260901044135 61 250 1.0 4.0 0.00 0.19 0.00 92 1016.1
20260901043635 61 98 1.0 5.0 0.00 0.19 0.00 92 1016.0
20260901043404 61 190 1.0 5.0 0.00 0.19 0.00 92 1016.0
20260901042635 61 250 1.0 5.0 0.00 0.19 0.00 92 1015.9
20260901042135 61 169 1.0 5.0 0.00 0.19 0.00 92 1015.8
20260901041635 61 279 1.0 5.0 0.00 0.19 0.00 92 1015.7
20260901041135 61 311 1.0 4.0 0.00 0.19 0.00 92 1015.7
20260901040635 61 267 1.0 4.0 0.00 0.19 0.00 92 1015.6
20260901040136 61 293 0.0 3.0 0.00 0.19 0.00 92 1015.6
20260901035635 61 39 0.0 3.0 0.00 0.19 0.00 92 1015.6
20260901035135 61 337 1.0 5.0 0.00 0.19 0.00 92 1015.5
20260901034636 61 127 1.0 5.0 0.00 0.19 0.00 92 1015.5
20260901034135 61 118 1.0 3.0 0.00 0.19 0.00 92 1015.4
20260901033635 61 289 1.0 3.0 0.00 0.19 0.00 92 1015.4
20260901033139 61 186 1.0 6.0 0.00 0.19 0.00 92 1015.4
20260901032648 61 244 1.0 4.0 0.00 0.19 0.00 92 1015.4
20260901032643 61 223 1.0 6.0 0.00 0.19 0.00 92 1015.4
20260901031856 61 240 1.0 5.0 0.00 0.19 0.00 92 1015.4
20260901031145 61 309 1.0 3.0 0.00 0.19 0.00 92 1015.3
20260901031138 61 285 1.0 5.0 0.00 0.19 0.00 92 1015.4
20260901030350 61 250 1.0 4.0 0.00 0.19 0.00 92 1015.4
20260901025625 60 312 1.0 5.0 0.00 0.19 0.00 92 1015.4
20260901025125 61 134 1.0 5.0 0.00 0.19 0.00 92 1015.5
20260901024621 60 283 1.0 4.0 0.00 0.19 0.00 92 1015.5
20260901024120 60 254 1.0 4.0 0.00 0.19 0.00 92 1015.4
20260901023619 61 245 1.0 6.0 0.00 0.19 0.00 92 1015.4
20260901023117 61 294 1.0 6.0 0.00 0.19 0.00 92 1015.4
20260901022620 60 282 1.0 3.0 0.00 0.19 0.00 92 1015.4
20260901022340 60 231 1.0 5.0 0.00 0.19 0.00 92 1015.4
20260901021836 60 245 1.0 5.0 0.00 0.19 0.00 92 1015.5
20260901021110 60 260 1.0 4.0 0.00 0.19 0.00 92 1015.5
20260901020611 60 260 1.0 4.0 0.00 0.19 0.00 92 1015.4
20260901020108 60 200 0.0 2.0 0.00 0.19 0.00 92 1015.4
20260901015609 60 215 0.0 2.0 0.00 0.19 0.00 92 1015.4
20260901015108 60 296 1.0 3.0 0.00 0.19 0.00 92 1015.3
20260901014606 60 219 1.0 3.0 0.00 0.19 0.00 92 1015.3
20260901014105 60 188 0.0 3.0 0.00 0.19 0.00 92 1015.2
20260901013603 60 206 0.0 3.0 0.00 0.19 0.00 91 1015.2
20260901013101 60 223 1.0 2.0 0.00 0.19 0.00 91 1015.2
20260901012557 60 291 1.0 4.0 0.00 0.19 0.00 91 1015.2
20260901012049 60 258 1.0 4.0 0.00 0.19 0.00 91 1015.2
20260901011543 60 329 1.0 4.0 0.00 0.19 0.00 91 1015.3
20260901011036 60 153 1.0 4.0 0.00 0.19 0.00 91 1015.3
20260901010610 60 266 1.0 7.0 0.00 0.19 0.00 91 1015.3
20260901010602 60 293 1.0 7.0 0.00 0.19 0.00 91 1015.2
20260901005534 60 254 0.0 4.0 0.00 0.19 0.00 90 1015.2
20260901005036 60 274 1.0 5.0 0.00 0.19 0.00 90 1015.2
20260901004535 61 216 1.0 5.0 0.00 0.19 0.00 90 1015.1
20260901004033 61 189 1.0 5.0 0.00 0.19 0.00 90 1015.1
20260901003531 61 202 1.0 5.0 0.00 0.20 0.00 90 1015.1
20260901003030 61 266 1.0 5.0 0.00 0.20 0.00 90 1015.1
20260901002530 61 199 1.0 6.0 0.00 0.20 0.00 90 1015.1
20260901002030 61 293 2.0 6.0 0.00 0.20 0.00 90 1015.1
20260901001531 61 309 1.0 4.0 0.00 0.20 0.00 90 1015.2
20260901001307 61 265 1.0 4.0 0.00 0.20 0.00 90 1015.2
20260901000531 61 239 1.0 6.0 0.00 0.20 0.00 90 1015.2
20260901000032 61 285 1.0 6.0 0.00 0.20 0.00 90 1015.1
20260831235530 61 188 1.0 6.0 0.00 0.20 0.00 90 1015.1
20260831235031 61 163 1.0 6.0 0.00 0.20 0.00 89 1015.1
20260831234530 61 236 1.0 6.0 0.00 0.20 0.00 90 1015.1
20260831234028 61 263 1.0 6.0 0.00 0.20 0.00 90 1015.1
20260831233526 61 261 1.0 4.0 0.00 0.20 0.00 90 1015.1
20260831233026 61 198 1.0 3.0 0.00 0.20 0.00 90 1015.0
20260831232524 61 199 1.0 4.0 0.00 0.20 0.00 89 1015.0
20260831232249 62 310 1.0 6.0 0.00 0.20 0.00 90 1015.0
20260831231753 62 296 1.0 6.0 0.00 0.20 0.00 90 1015.0
20260831231025 62 285 1.0 5.0 0.00 0.20 0.00 90 1015.0
20260831230524 62 252 1.0 4.0 0.00 0.20 0.00 90 1015.0
20260831230030 62 293 1.0 4.0 0.00 0.20 0.00 90 1015.0
20260831225522 61 250 1.0 4.0 0.00 0.20 0.00 90 1015.1
20260831225026 61 160 1.0 5.0 0.00 0.20 0.00 90 1015.1
20260831224524 61 248 1.0 5.0 0.00 0.20 0.00 90 1015.1
20260831224053 62 189 1.0 5.0 0.00 0.20 0.00 90 1015.1
20260831224049 61 275 0.0 5.0 0.00 0.20 0.00 90 1015.1
20260831224042 61 277 0.0 4.0 0.00 0.20 0.00 90 1015.1
20260831222541 62 234 1.0 4.0 0.00 0.20 0.00 89 1015.0
20260831222534 62 222 1.0 4.0 0.00 0.20 0.00 90 1015.0
20260831221524 62 266 1.0 4.0 0.00 0.20 0.00 89 1014.9
20260831221019 62 286 1.0 4.0 0.00 0.20 0.00 89 1014.9
20260831220523 62 255 0.0 3.0 0.00 0.20 0.00 89 1014.9
20260831220031 62 293 1.0 4.0 0.00 0.20 0.00 89 1014.9
20260831215520 62 271 1.0 4.0 0.00 0.20 0.20 89 1014.9
20260831215022 63 274 1.0 5.0 0.00 0.20 0.20 88 1014.9
20260831214521 63 266 2.0 5.0 0.00 0.20 0.20 88 1014.9
20260831214019 63 155 2.0 7.0 0.00 0.20 0.20 88 1014.8
20260831213523 63 333 2.0 7.0 0.00 0.20 0.20 88 1014.8
20260831213023 63 283 1.0 3.0 0.00 0.20 0.20 88 1014.8
20260831212519 63 307 1.0 5.0 0.00 0.20 0.20 88 1014.7
20260831212023 63 314 2.0 5.0 0.00 0.20 0.20 88 1014.7
20260831211522 63 252 1.0 4.0 0.00 0.20 0.20 88 1014.7
20260831211019 63 234 1.0 5.0 0.00 0.20 0.20 88 1014.6
20260831210522 63 257 1.0 5.0 0.00 0.20 0.20 88 1014.5
20260831210300 63 320 1.0 6.0 0.00 0.20 0.20 89 1014.6
20260831205748 63 280 2.0 7.0 0.00 0.20 0.20 89 1014.5
20260831205001 63 203 2.0 7.0 0.00 0.20 0.20 90 1014.5
20260831204501 63 193 2.0 5.0 0.00 0.20 0.20 90 1014.5
20260831204253 62 289 1.0 4.0 0.00 0.20 0.20 91 1014.5
20260831203748 62 244 1.0 3.0 0.00 0.20 0.20 90 1014.4
20260831202949 62 352 1.0 3.0 0.00 0.20 0.20 90 1014.3
20260831202447 62 297 1.0 3.0 0.00 0.20 0.20 90 1014.2
20260831201947 62 79 0.0 3.0 0.00 0.20 0.20 90 1014.2
20260831201523 62 301 1.0 3.0 0.00 0.20 0.20 90 1014.0
20260831201458 62 143 1.0 3.0 0.00 0.20 0.20 90 1014.1
20260831200443 62 267 0.0 2.0 0.00 0.20 0.20 90 1014.0
20260831195941 62 241 0.0 3.0 0.00 0.20 0.20 90 1014.0
20260831195439 62 266 0.0 3.0 0.00 0.20 0.20 90 1013.8
20260831194939 62 220 0.0 3.0 0.00 0.20 0.20 90 1013.7
20260831194437 62 257 0.0 3.0 0.00 0.20 0.20 90 1013.7
20260831193938 62 257 0.0 3.0 0.00 0.20 0.20 90 1013.6
20260831193437 62 249 0.0 3.0 0.00 0.20 0.20 90 1013.5
20260831192938 62 215 0.0 0.0 0.00 0.20 0.20 90 1013.5
20260831192433 62 266 0.0 0.0 0.00 0.20 0.20 90 1013.4
20260831191933 62 266 0.0 0.0 0.00 0.20 0.20 90 1013.4
20260831191725 62 266 0.0 2.0 0.00 0.20 0.20 90 1013.3
20260831190933 62 248 0.0 2.0 0.00 0.20 0.20 90 1013.3
20260831190431 62 229 0.0 2.0 0.00 0.20 0.20 89 1013.2
20260831185931 62 289 0.0 2.0 0.00 0.20 0.20 89 1013.1
20260831185430 62 289 0.0 2.0 0.00 0.20 0.20 89 1013.0
20260831184931 63 303 1.0 3.0 0.00 0.20 0.20 89 1013.0
20260831184722 63 269 1.0 3.0 0.00 0.20 0.20 89 1013.0
20260831183930 63 264 1.0 2.0 0.00 0.20 0.20 88 1012.9
20260831183430 63 301 1.0 3.0 0.00 0.20 0.20 88 1012.8
20260831182930 64 301 1.0 3.0 0.00 0.20 0.20 88 1012.7
20260831182431 64 303 0.0 3.0 0.00 0.20 0.20 87 1012.6
20260831181930 64 273 1.0 5.0 0.00 0.20 0.20 87 1012.4
20260831181720 64 200 1.0 5.0 0.00 0.20 0.20 87 1012.4
20260831180931 64 231 1.0 3.0 0.00 0.20 0.20 86 1012.2
20260831180430 65 157 2.0 6.0 0.00 0.20 0.20 86 1012.1
20260831175932 65 167 2.0 8.0 0.00 0.20 0.20 86 1012.1
20260831175432 65 252 2.0 8.0 0.00 0.20 0.20 86 1012.0
20260831174931 65 300 1.0 5.0 0.00 0.20 0.20 86 1011.9
20260831174431 65 338 1.0 6.0 0.00 0.20 0.20 85 1011.8
20260831173931 65 224 2.0 6.0 0.00 0.20 0.20 85 1011.8
20260831173437 66 306 2.0 5.0 0.00 0.20 0.20 85 1011.8
20260831172931 66 316 2.0 5.0 0.00 0.20 0.20 84 1011.6
20260831172425 66 310 2.0 5.0 0.00 0.20 0.20 83 1011.6
20260831171920 66 186 2.0 8.0 0.00 0.20 0.20 83 1011.5
20260831171659 67 189 3.0 9.0 0.00 0.20 0.20 82 1011.5
20260831171150 67 302 3.0 9.0 0.00 0.20 0.20 82 1011.4
20260831170420 67 207 3.0 9.0 0.00 0.20 0.20 81 1011.3
20260831165904 67 202 3.0 9.0 0.00 0.20 0.20 80 1011.2
20260831165403 67 229 3.0 8.0 0.00 0.20 0.20 81 1011.2
20260831164903 67 292 3.0 9.0 0.00 0.20 0.20 80 1011.1
20260831164646 67 191 3.0 9.0 0.00 0.20 0.20 80 1011.0
20260831163902 67 239 2.0 8.0 0.00 0.20 0.20 81 1011.0
20260831163649 67 293 2.0 8.0 0.00 0.20 0.20 81 1011.0
20260831162902 66 310 3.0 9.0 0.00 0.20 0.20 82 1011.0
20260831162646 66 276 2.0 9.0 0.00 0.20 0.20 81 1011.1
20260831162145 65 141 2.0 8.0 0.00 0.20 0.20 83 1010.9
20260831161402 65 63 3.0 9.0 0.00 0.20 0.20 83 1011.0
20260831160902 66 0 4.0 11.0 0.00 0.20 0.20 82 1011.0
20260831160403 66 301 4.0 11.0 0.00 0.20 0.20 82 1010.8
20260831155904 66 321 4.0 11.0 0.00 0.20 0.20 81 1010.7
20260831155402 66 228 4.0 11.0 0.00 0.20 0.20 82 1010.8
20260831154902 66 254 4.0 10.0 0.00 0.20 0.20 81 1010.7
20260831154405 67 304 4.0 13.0 0.00 0.20 0.20 81 1010.7
20260831154146 67 285 3.0 13.0 0.00 0.20 0.20 81 1010.6
20260831153719 67 279 4.0 8.0 0.00 0.20 0.20 81 1010.4
20260831153715 68 331 3.0 10.0 0.00 0.20 0.20 81 1010.5
20260831153424 67 278 2.0 10.0 0.00 0.20 0.20 80 1010.5
20260831151905 67 266 3.0 7.0 0.00 0.20 0.20 81 1010.4
20260831151404 67 75 3.0 8.0 0.00 0.20 0.20 83 1010.3
20260831150902 66 202 4.0 13.0 0.00 0.20 0.20 83 1010.3
20260831150406 66 215 4.0 13.0 0.00 0.20 0.20 82 1010.3
20260831145903 66 310 3.0 8.0 0.00 0.20 0.20 84 1010.3
20260831145406 65 306 3.0 8.0 0.00 0.20 0.20 86 1010.2
20260831144903 65 231 3.0 11.0 0.00 0.20 0.20 85 1010.1
20260831144406 65 343 3.0 11.0 0.00 0.20 0.20 84 1010.1
20260831144149 65 307 4.0 11.0 0.00 0.20 0.20 83 1010.0
20260831143402 66 191 5.0 11.0 0.00 0.20 0.20 82 1010.0
20260831143152 66 223 3.0 11.0 0.00 0.20 0.20 82 1009.8
20260831142402 67 263 3.0 10.0 0.00 0.20 0.20 83 1009.6
20260831141908 67 269 4.0 10.0 0.00 0.20 0.20 82 1009.5
20260831141357 67 186 4.0 12.0 0.00 0.20 0.20 84 1009.5
20260831140851 66 283 4.0 12.0 0.00 0.20 0.20 85 1009.6
20260831140344 66 281 3.0 11.0 0.00 0.20 0.20 86 1009.6
20260831135837 66 221 3.0 13.0 0.00 0.20 0.20 87 1009.6
20260831135332 65 296 3.0 8.0 0.00 0.20 0.20 87 1009.5
20260831134828 65 293 3.0 9.0 0.01 0.20 0.20 88 1009.4
20260831134327 65 297 3.0 9.0 0.01 0.20 0.20 89 1009.3
20260831134110 64 277 3.0 9.0 0.01 0.20 0.20 90 1009.2
20260831133326 64 186 3.0 11.0 0.03 0.20 0.20 90 1009.3
20260831133108 63 1 4.0 11.0 0.13 0.20 0.20 91 1009.3
20260831132328 63 314 4.0 11.0 0.13 0.20 0.20 91 1009.3
20260831132110 63 281 3.0 11.0 0.14 0.20 0.20 93 1009.3
20260831131327 62 191 3.0 7.0 0.14 0.20 0.20 92 1009.3
20260831130826 61 285 3.0 8.0 0.14 0.20 0.20 92 1009.3
20260831130327 61 318 3.0 8.0 0.14 0.20 0.20 91 1009.3
20260831125826 61 290 3.0 11.0 0.14 0.20 0.20 91 1009.3
20260831125326 61 340 3.0 11.0 0.14 0.20 0.20 90 1009.2
20260831124826 61 297 3.0 8.0 0.13 0.19 0.19 90 1009.2
20260831124327 62 281 3.0 11.0 0.13 0.19 0.19 89 1009.2
20260831123825 63 1 3.0 11.0 0.13 0.19 0.18 87 1009.2
20260831123324 64 253 2.0 10.0 0.11 0.17 0.15 86 1009.1
20260831122845 65 269 2.0 9.0 0.01 0.06 0.06 81 1008.6
20260831122837 65 37 3.0 8.0 0.02 0.07 0.06 83 1008.9
20260831121824 66 269 2.0 9.0 0.00 0.06 0.06 79 1008.5
20260831121324 67 64 3.0 8.0 0.00 0.06 0.06 77 1008.4
20260831120824 68 255 3.0 9.0 0.00 0.06 0.06 75 1008.3
20260831120610 68 104 4.0 9.0 0.00 0.06 0.06 73 1008.2
20260831115824 69 314 4.0 13.0 0.00 0.06 0.06 71 1008.2
20260831115325 69 307 4.0 13.0 0.00 0.06 0.06 71 1008.2
20260831115103 69 240 3.0 8.0 0.00 0.06 0.06 72 1008.1
20260831114320 69 172 3.0 9.0 0.00 0.06 0.06 72 1008.1
20260831113821 69 308 3.0 9.0 0.00 0.06 0.06 72 1008.0
20260831113603 69 93 4.0 12.0 0.02 0.06 0.06 72 1008.0
20260831112839 69 289 3.0 9.0 0.02 0.06 0.06 73 1008.0
20260831112831 69 287 3.0 12.0 0.02 0.06 0.06 72 1007.9
20260831111820 69 176 3.0 9.0 0.02 0.06 0.06 76 1007.9
20260831111320 68 279 3.0 9.0 0.02 0.06 0.06 81 1007.9
20260831110821 67 206 3.0 9.0 0.02 0.06 0.06 82 1008.0
20260831110318 66 201 3.0 11.0 0.02 0.06 0.06 85 1008.0
20260831105818 65 297 3.0 13.0 0.02 0.06 0.06 84 1008.1
20260831105316 65 245 3.0 13.0 0.02 0.06 0.06 85 1008.2
20260831104813 65 217 3.0 7.0 0.02 0.06 0.06 85 1008.1
20260831104312 66 353 3.0 7.0 0.02 0.06 0.06 85 1008.1
20260831103810 66 274 3.0 8.0 0.02 0.06 0.06 84 1008.2
20260831103310 67 319 3.0 8.0 0.02 0.04 0.04 81 1008.0
20260831102810 67 2 3.0 7.0 0.03 0.04 0.04 84 1008.0
20260831102309 66 236 3.0 7.0 0.03 0.04 0.04 86 1008.0
20260831101810 66 314 2.0 9.0 0.03 0.04 0.04 88 1008.1
20260831101602 65 331 3.0 9.0 0.03 0.04 0.04 89 1008.1
20260831100810 64 269 2.0 7.0 0.03 0.04 0.04 90 1008.1
20260831100307 64 323 2.0 6.0 0.03 0.04 0.04 91 1008.1
20260831095808 63 283 2.0 8.0 0.03 0.04 0.04 91 1008.2
20260831095306 63 274 3.0 11.0 0.03 0.04 0.04 91 1008.2
20260831094804 63 296 3.0 11.0 0.03 0.04 0.04 90 1008.3
20260831094303 63 265 3.0 6.0 0.02 0.03 0.03 89 1008.3
20260831093803 64 303 3.0 7.0 0.02 0.03 0.03 87 1008.4
20260831093257 65 293 4.0 11.0 0.02 0.02 0.01 85 1008.4
20260831093044 65 295 4.0 14.0 0.00 0.01 0.01 82 1008.4
20260831092245 66 287 4.0 14.0 0.00 0.01 0.01 79 1008.4
20260831091740 66 290 4.0 14.0 0.00 0.01 0.01 78 1008.1
20260831091235 67 175 4.0 11.0 0.00 0.01 0.01 76 1008.0
20260831090736 68 84 4.0 22.0 0.00 0.01 0.01 75 1007.9
20260831090234 68 312 4.0 22.0 0.00 0.01 0.01 75 1007.8
20260831085734 68 271 4.0 13.0 0.00 0.01 0.01 76 1007.9
20260831085523 67 301 4.0 16.0 0.00 0.01 0.01 77 1007.6
20260831084730 67 270 4.0 16.0 0.00 0.01 0.01 78 1007.6
20260831084230 66 29 3.0 10.0 0.00 0.01 0.01 80 1007.7
20260831084023 65 295 3.0 8.0 0.00 0.01 0.01 81 1007.8
20260831083518 66 293 4.0 14.0 0.00 0.01 0.01 80 1007.9
20260831083026 67 285 4.0 14.0 0.00 0.01 0.01 78 1007.9
20260831082230 67 148 4.0 15.0 0.00 0.01 0.01 76 1008.1
20260831081730 67 275 4.0 15.0 0.00 0.01 0.01 76 1007.7
20260831081230 67 248 4.0 11.0 0.00 0.01 0.01 77 1007.7
20260831080730 66 223 4.0 12.0 0.00 0.01 0.01 78 1007.9
20260831080458 66 162 4.0 12.0 0.00 0.01 0.01 78 1007.7
20260831075732 66 263 4.0 11.0 0.00 0.01 0.01 78 1007.7
20260831075232 66 295 4.0 9.0 0.00 0.01 0.01 79 1007.8
20260831074731 65 290 3.0 9.0 0.00 0.01 0.01 79 1007.8
20260831074225 65 299 3.0 13.0 0.00 0.01 0.01 79 1007.7
20260831073718 65 219 4.0 13.0 0.00 0.01 0.01 79 1007.8
20260831073448 65 229 3.0 12.0 0.00 0.01 0.01 79 1007.9
20260831072716 65 148 3.0 17.0 0.00 0.01 0.01 79 1007.9
20260831072215 65 155 3.0 17.0 0.00 0.01 0.01 79 1008.0
20260831071715 65 162 4.0 21.0 0.00 0.01 0.01 79 1008.0
20260831071446 65 208 4.0 21.0 0.00 0.01 0.01 79 1007.9
20260831070949 65 174 3.0 16.0 0.00 0.01 0.01 79 1008.0
20260831070215 66 319 2.0 10.0 0.00 0.01 0.01 80 1008.0
20260831065716 65 49 3.0 8.0 0.00 0.01 0.01 81 1007.9
20260831065213 65 240 3.0 10.0 0.00 0.01 0.01 81 1007.7
20260831064711 65 195 3.0 12.0 0.00 0.01 0.01 81 1007.7
20260831064212 65 231 3.0 12.0 0.00 0.01 0.01 82 1007.7